Waarnemingen

Advertentie
Mijn weer
L9F, Nederland (6207): temperatuur & dauwpunt: 21.06.2017 02:00:00 - 27.06.2017 02:00:00 (CEST)L9F, Nederland (6207): windsnelheid & windstoten: 21.06.2017 02:00:00 - 27.06.2017 02:00:00 (CEST)L9F, Nederland (6207): windrichting: 21.06.2017 02:00:00 - 27.06.2017 02:00:00 (CEST)L9F, Nederland (6207): luchtdruk: 21.06.2017 02:00:00 - 27.06.2017 02:00:00 (CEST)L9F, Nederland (6207): zicht: 21.06.2017 02:00:00 - 27.06.2017 02:00:00 (CEST)
Datum & Tijd tt [°C] td [°C] ff [km/u] ff [kn] fx [km/u] fx [kn] dd ppp [hPa] vv [km]
27.06.2017 02:00:00 14,1 7,3 11 6 14 8 N 1014,6 10
27.06.2017 01:00:00 14,3 8,4 8 4 11 6 N 1015,0 10
27.06.2017 00:00:00 14,3 8,8 11 6 14 8 N 1014,9 10
26.06.2017 23:00:00 14,5 7,9 13 7 18 10 N 1014,7 10
26.06.2017 22:00:00 14,6 8,8 15 8 18 10 NNW 1014,6 10
26.06.2017 21:00:00 15,0 8,3 13 7 14 8 NNW 1014,6 10
26.06.2017 20:00:00 15,2 8,3 13 7 18 10 NNW 1014,7 10
26.06.2017 19:00:00 14,9 8,5 9 5 18 10 NW 1015,0 10
26.06.2017 18:00:00 14,9 8,3 13 7 18 10 NW 1015,1 10
26.06.2017 17:00:00 14,8 8,4 15 8 25 14 NW 1015,1 10
26.06.2017 16:00:00 14,5 8,1 18 10 25 14 WNW 1015,0 10
26.06.2017 15:00:00 14,5 9,3 18 10 25 14 NW 1014,6 10
26.06.2017 14:00:00 14,3 8,7 18 10 22 12 WNW 1014,5 10
26.06.2017 13:00:00 14,2 8,4 18 10 22 12 NW 1014,2 10
26.06.2017 12:00:00 14,1 8,9 18 10 22 12 NW 1013,9 10
26.06.2017 11:00:00 14,2 9,2 22 12 25 14 NW 1013,5 10
26.06.2017 10:00:00 14,4 9,9 26 14 25 14 NW 1012,8 10
26.06.2017 09:00:00 13,6 9,8 29 16 36 19 NW 1012,4 10
26.06.2017 08:00:00 14,7 9,5 25 14 32 18 WNW 1011,6 41
26.06.2017 07:00:00 14,8 9,2 28 15 32 18 NW 1011,1 10
26.06.2017 06:00:00 14,9 9,6 31 17 36 19 NW 1010,6 10
26.06.2017 05:00:00 14,9 10,6 31 17 36 19 WNW 1010,1 10
26.06.2017 04:00:00 15,3 9,9 37 20 40 21 WNW 1009,9 10
26.06.2017 03:00:00 15,1 11,6 34 18 36 19 WNW 1009,8 10
26.06.2017 02:00:00 15,3 13,3 26 14 25 14 W 1009,7 10
26.06.2017 01:00:00 15,3 13,3 26 14 25 14 W 1009,2 10
26.06.2017 00:00:00 15,3 13,4 22 12 25 14 WZW 1009,5 10
25.06.2017 23:00:00 15,5 12,6 22 12 25 14 W 1009,4 10
25.06.2017 22:00:00 15,2 12,6 22 12 25 14 W 1009,4 10
25.06.2017 21:00:00 14,8 12,4 26 14 29 16 WZW 1009,5 10
25.06.2017 20:00:00 15,3 12,1 28 15 29 16 WZW 1009,7 10
25.06.2017 19:00:00 15,2 11,2 29 16 29 16 WZW 1009,8 10
25.06.2017 18:00:00 15,1 11,7 24 13 29 16 WZW 1009,9 10
25.06.2017 17:00:00 14,8 10,4 28 15 29 16 W 1010,0 10
25.06.2017 16:00:00 14,7 9,2 28 15 29 16 W 1010,1 10
25.06.2017 15:00:00 14,8 10,3 28 15 29 16 W 1009,9 10
25.06.2017 14:00:00 15,0 9,7 29 16 32 18 W 1009,7 10
25.06.2017 13:00:00 15,0 11,7 29 16 29 16 W 1009,4 10
25.06.2017 12:00:00 15,0 10,6 29 16 36 19 W 1008,9 10
25.06.2017 11:00:00 15,2 9,8 37 20 36 19 W 1008,4 10
25.06.2017 10:00:00 15,3 11,0 31 17 36 19 W 1008,2 10
25.06.2017 09:00:00 15,4 11,3 35 19 32 18 W 1007,9 10
25.06.2017 08:00:00 15,4 11,4 29 16 29 16 W 1007,7 10
25.06.2017 07:00:00 15,6 11,3 28 15 29 16 W 1007,5 10
25.06.2017 06:00:00 16,0 11,5 31 17 32 18 W 1007,2 10
25.06.2017 05:00:00 16,5 12,9 35 19 36 19 W 1007,2 10
25.06.2017 04:00:00 16,2 14,5 29 16 32 18 WZW 1007,3 10
25.06.2017 03:00:00 16,0 15,0 22 12 25 14 W 1007,3 10
25.06.2017 02:00:00 15,9 15,2 29 16 29 16 WZW 1007,9 8
25.06.2017 01:00:00 16,1 15,5 31 17 32 18 WZW 1008,2 8
25.06.2017 00:00:00 16,3 15,5 37 20 40 21 ZW 1008,5 8
24.06.2017 23:00:00 16,2 15,5 39 21 40 21 ZW 1008,9 6
24.06.2017 22:00:00 16,3 15,1 34 18 36 19 ZW 1009,1 10
24.06.2017 21:00:00 16,3 12,8 29 16 29 16 ZZW 1009,4 10
24.06.2017 20:00:00 15,8 12,5 18 10 22 12 ZW 1010,1 10
24.06.2017 19:00:00 15,2 12,3 22 12 29 16 ZW 1010,8 10
24.06.2017 18:00:00 14,5 12,1 35 19 36 19 ZW 1011,1 8
24.06.2017 17:00:00 15,3 12,4 28 15 29 16 WZW 1011,3 10
24.06.2017 16:00:00 15,2 12,8 28 15 29 16 WZW 1011,5 10
24.06.2017 15:00:00 14,9 12,4 28 15 29 16 WZW 1011,5 10
24.06.2017 14:00:00 15,0 12,3 28 15 29 16 WZW 1011,2 10
24.06.2017 13:00:00 14,8 11,5 24 13 29 16 W 1011,2 10
24.06.2017 12:00:00 15,0 13,4 35 19 40 21 W 1010,6 10
24.06.2017 11:00:00 15,4 13,7 39 21 50 27 W 1009,8 10
24.06.2017 10:00:00 16,4 14,3 44 24 47 25 WZW 1009,4 10
24.06.2017 09:00:00 16,3 14,3 44 24 43 23 WZW 1009,4 10
24.06.2017 08:00:00 16,5 14,3 44 24 47 25 WZW 1009,4 10
24.06.2017 07:00:00 16,5 14,4 44 24 43 23 WZW 1009,6 10
24.06.2017 06:00:00 16,7 14,3 42 23 43 23 WZW 1009,7 10
24.06.2017 05:00:00 16,8 14,2 44 24 47 25 WZW 1010,1 10
24.06.2017 04:00:00 16,8 14,5 42 23 43 23 WZW 1010,5 10
24.06.2017 03:00:00 16,8 14,7 41 22 40 21 WZW 1011,0 10
24.06.2017 02:00:00 16,7 14,7 37 20 40 21 WZW 1011,4 10
24.06.2017 01:00:00 16,4 15,1 37 20 36 19 ZW 1011,9 10
24.06.2017 00:00:00 16,3 15,0 42 23 40 21 ZW 1012,3 10
23.06.2017 23:00:00 16,2 14,8 42 23 43 23 ZW 1012,5 9
23.06.2017 22:00:00 16,3 14,6 37 20 43 23 ZW 1012,7 10
23.06.2017 21:00:00 16,3 14,2 36 19 43 23 ZW 1012,7 14
23.06.2017 20:00:00 16,0 14,1 44 24 43 23 ZW 1012,7 10
23.06.2017 19:00:00 16,0 13,7 44 24 43 23 ZW 1013,0 10
23.06.2017 18:00:00 15,8 13,2 44 24 47 25 ZW 1012,8 10
23.06.2017 17:00:00 15,7 12,9 42 23 47 25 WZW 1013,0 10
23.06.2017 16:00:00 15,5 12,7 46 25 47 25 WZW 1013,0 10
23.06.2017 15:00:00 15,4 13,3 44 24 43 23 ZW 1012,6 10
23.06.2017 14:00:00 15,4 13,0 41 22 43 23 WZW 1012,5 10
23.06.2017 13:00:00 15,4 13,3 39 21 36 19 WZW 1012,7 10
23.06.2017 12:00:00 15,8 13,2 34 18 36 19 WZW 1012,5 10
23.06.2017 11:00:00 15,6 12,8 35 19 36 19 WZW 1012,5 10
23.06.2017 10:00:00 15,4 12,5 34 18 36 19 WZW 1012,1 10
23.06.2017 09:00:00 15,1 12,2 28 15 29 16 WZW 1011,6 10
23.06.2017 08:00:00 14,7 12,8 29 16 29 16 WZW 1011,4 10
23.06.2017 07:00:00 14,7 13,3 22 12 25 14 W 1011,0 10
23.06.2017 06:00:00 14,4 13,7 24 13 32 18 W 1010,8 10
23.06.2017 05:00:00 14,9 13,8 28 15 36 19 W 1010,7 10
23.06.2017 04:00:00 15,2 13,5 35 19 40 21 WNW 1010,4 10
23.06.2017 03:00:00 15,1 14,2 41 22 50 27 WNW 1010,2 10
23.06.2017 02:00:00 15,1 14,3 41 22 50 27 - 1010,0 8
23.06.2017 01:00:00 15,3 13,9 55 30 58 31 - 1009,3 10
23.06.2017 00:00:00 15,3 14,7 42 23 50 27 - 1009,1 5
22.06.2017 23:00:00 15,3 14,6 42 23 54 29 W 1008,4 6
22.06.2017 22:00:00 15,2 15,0 41 22 47 25 - 1007,1 0,4
22.06.2017 21:00:00 15,4 15,0 44 24 43 23 W 1006,6 1,5
22.06.2017 20:00:00 16,5 15,2 41 22 40 21 WZW 1006,4 7
22.06.2017 19:00:00 16,7 15,6 29 16 36 19 WZW 1006,6 4,5
22.06.2017 18:00:00 16,7 15,9 39 21 36 19 WZW 1006,9 4,9
22.06.2017 17:00:00 16,9 16,2 39 21 47 25 W 1006,6 2,7
22.06.2017 16:00:00 17,4 16,5 29 16 61 33 WZW 1006,1 2,9
22.06.2017 15:00:00 17,4 16,3 50 27 54 29 WZW 1007,1 3,9
22.06.2017 14:00:00 17,8 16,5 42 23 43 23 ZW 1007,3 4,2
22.06.2017 13:00:00 17,7 16,4 41 22 40 21 WZW 1007,3 4,5
22.06.2017 12:00:00 17,8 16,3 31 17 32 18 ZW 1007,5 4,9
22.06.2017 11:00:00 17,9 16,2 28 15 32 18 WZW 1007,8 6
22.06.2017 10:00:00 17,9 16,0 34 18 36 19 WZW 1007,8 7
22.06.2017 09:00:00 18,7 16,1 44 24 47 25 ZW 1007,2 10
22.06.2017 08:00:00 20,3 15,9 57 31 65 35 ZZW 1007,2 10
22.06.2017 07:00:00 19,7 16,3 59 32 65 35 Z 1007,0 10
22.06.2017 06:00:00 18,9 15,2 55 30 54 29 Z 1008,4 10
22.06.2017 05:00:00 18,5 14,8 55 30 50 27 Z 1009,6 10
22.06.2017 04:00:00 18,2 14,5 46 25 54 29 ZZO 1009,9 10
22.06.2017 03:00:00 18,1 14,7 32 18 43 23 ZZO 1012,0 33
22.06.2017 02:00:00 17,9 15,1 41 22 40 21 ZZO 1012,6 10
22.06.2017 01:00:00 17,6 15,0 39 21 36 19 ZO 1013,3 10
22.06.2017 00:00:00 17,2 15,1 41 22 40 21 OZO 1013,3 10
21.06.2017 23:00:00 16,7 14,3 34 18 36 19 OZO 1013,9 10
21.06.2017 22:00:00 16,6 14,1 26 14 32 18 O 1014,7 10
21.06.2017 21:00:00 16,5 13,7 29 16 32 18 O 1015,4 10
21.06.2017 20:00:00 16,6 13,0 34 18 40 21 O 1015,6 10
21.06.2017 19:00:00 16,8 12,6 34 18 36 19 O 1015,6 10
21.06.2017 18:00:00 16,6 12,6 26 14 29 16 O 1016,6 10
21.06.2017 17:00:00 16,1 12,3 26 14 25 14 O 1017,3 10
21.06.2017 16:00:00 15,9 11,5 26 14 25 14 O 1017,7 10
21.06.2017 15:00:00 15,7 11,4 26 14 29 16 O 1018,2 10
21.06.2017 14:00:00 15,2 10,7 18 10 25 14 O 1018,4 36
21.06.2017 13:00:00 15,1 10,2 21 11 22 12 O 1019,6 10
21.06.2017 12:00:00 15,2 10,4 18 10 22 12 O 1019,9 10
21.06.2017 11:00:00 14,9 9,8 15 8 18 10 O 1020,4 10
21.06.2017 10:00:00 14,9 10,0 15 8 22 12 O 1020,6 10
21.06.2017 09:00:00 14,9 9,8 16 9 18 10 O 1020,7 10
21.06.2017 08:00:00 15,1 10,1 11 6 18 10 O 1020,6 10
21.06.2017 07:00:00 15,5 10,0 16 9 22 12 O 1020,5 10
21.06.2017 06:00:00 15,1 9,8 18 10 22 12 O 1020,6 10
21.06.2017 05:00:00 15,0 10,4 18 10 18 10 ONO 1020,8 10
21.06.2017 04:00:00 14,2 9,9 18 10 18 10 ONO 1021,0 10
21.06.2017 03:00:00 14,3 10,0 21 11 22 12 ONO 1021,4 10
21.06.2017 02:00:00 14,7 9,6 21 11 25 14 ONO 1021,8 10

tt = temperatuur
td = dauwpunt
ff = windsnelheid
fx = windstoten
dd = windrichting
ppp = luchtdruk
vv = zicht

Weerstations in de omgeving